Regional Weather Roundup
Issued by NWS

Home | Current Version | Previous Version | Text Only | Print | Product List | Glossary Off
Versions: 1 2 3 4 5 6 7 8 9 10 11 12 13 14 15 16 17 18 19 20 21 22 23 24 25 26 27

000
ASUS45 KBOI 042010
RWRID

IDAHO REGIONAL WEATHER ROUNDUP
NATIONAL WEATHER SERVICE BOISE ID
200 PM MDT WED MAY 04 2016

NOTE: "FAIR" INDICATES FEW OR NO CLOUDS BELOW 12000 FEET
WITH NO SIGNIFICANT WEATHER AND/OR OBSTRUCTIONS TO VISIBILITY

IDZ012-014-042100-
SOUTHWEST IDAHO


CITY           SKY/WX    TMP DP  RH WIND       PRES   REMARKS
BOISE          PTSUNNY   82  32  16 S10G22    29.91F
CALDWELL       PTSUNNY   82  42  24 SE14G22   29.88F
MOUNTAIN HOME  PTSUNNY   83  37  19 E20       29.91F
$$

IDZ016-017-042100-
SOUTHCENTRAL IDAHO


CITY           SKY/WX    TMP DP  RH WIND       PRES   REMARKS
BURLEY         MOSUNNY   76  34  21 S6        30.01F
JEROME         PTSUNNY   77  35  21 VRB3      30.01F
TWIN FALLS     PTSUNNY   77  34  21 S12G22    30.01F
$$

IDZ019>023-042100-
SOUTHEAST IDAHO


CITY           SKY/WX    TMP DP  RH WIND       PRES   REMARKS
IDAHO FALLS    MOSUNNY   75  32  20 SW12G17   30.09F
POCATELLO      MOSUNNY   77  33  20 S9G18     30.07F
REXBURG        SUNNY     74  29  19 SW14      30.10F
$$

IDZ006-010-011-018-031-032-042100-
CENTRAL IDAHO MOUNTAINS


CITY           SKY/WX    TMP DP  RH WIND       PRES   REMARKS
MCCALL         PTSUNNY   72  30  21 S17G28    30.00F
HAILEY         MOSUNNY   70  37  30 S12       30.11F
STANLEY          N/A     66  26  22 SW12G20   30.12F
SALMON         MOSUNNY   73  30  20 S8        29.99F
CHALLIS        MOSUNNY   73  27  18 SE9       30.04F
$$

IDZ002-004-006-007-026-042100-
NORTHERN IDAHO


CITY           SKY/WX    TMP DP  RH WIND       PRES   REMARKS
LEWISTON       MOSUNNY   77  48  35 VRB6      29.90F
LOWELL           N/A     78  48  34 S3        29.87F
COEUR D`ALENE  SUNNY     72  48  43 CALM      29.93F
MULLAN PASS    MOSUNNY   61  33  35 CALM      30.08F
$$




USA.gov is the U.S. government's official web portal to all federal, state and local government web resources and services.